Time,TemperatureF,DewpointF,PressureIn,WindDirection,WindDirectionDegrees,WindSpeedMPH,WindSpeedGustMPH,Humidity,HourlyPrecipIn,Conditions,Clouds,dailyrainin,SolarRadiationWatts/m^2,SoftwareType,DateUTC
2013-02-18 00:00:00,24.8,11.3,30.25,SE,142,4.0,5.0,56,0.00,,---,0.00,0.00,VWS V14.00,2013-02-18 05:00:00,
2013-02-18 00:05:00,24.8,11.3,30.25,SE,130,3.0,5.0,56,0.00,,---,0.00,0.00,VWS V14.00,2013-02-18 05:05:00,
2013-02-18 00:10:00,24.7,11.2,30.25,SE,133,2.0,2.0,56,0.00,,---,0.00,0.00,VWS V14.00,2013-02-18 05:10:00,
2013-02-18 00:15:00,24.7,11.6,30.25,SE,131,3.0,3.0,57,0.00,,---,0.00,0.00,VWS V14.00,2013-02-18 05:15:00,
2013-02-18 00:20:00,24.5,11.5,30.25,SE,131,2.0,2.0,57,0.00,,---,0.00,0.00,VWS V14.00,2013-02-18 05:20:00,
2013-02-18 00:25:00,24.5,11.5,30.25,SE,133,4.0,4.0,57,0.00,,---,0.00,0.00,VWS V14.00,2013-02-18 05:25:00,
2013-02-18 00:30:00,24.5,11.9,30.25,SE,136,4.0,4.0,58,0.00,,---,0.00,0.00,VWS V14.00,2013-02-18 05:30:00,
2013-02-18 00:35:00,24.5,11.5,30.25,SE,132,4.0,4.0,57,0.00,,---,0.00,0.00,VWS V14.00,2013-02-18 05:35:00,
2013-02-18 00:40:00,24.4,11.8,30.25,ESE,119,3.0,4.0,58,0.00,,---,0.00,0.00,VWS V14.00,2013-02-18 05:40:00,
2013-02-18 00:45:00,24.3,11.7,30.25,ESE,119,2.0,2.0,58,0.00,,---,0.00,0.00,VWS V14.00,2013-02-18 05:45:00,
2013-02-18 00:50:00,24.2,11.6,30.25,SE,137,3.0,3.0,58,0.00,,---,0.00,0.00,VWS V14.00,2013-02-18 05:50:00,
2013-02-18 00:55:00,24.1,11.9,30.25,SE,135,2.0,4.0,59,0.00,,---,0.00,0.00,VWS V14.00,2013-02-18 05:55:00,
2013-02-18 01:00:00,24.1,11.9,30.25,SE,136,4.0,4.0,59,0.00,,---,0.00,0.00,VWS V14.00,2013-02-18 06:00:00,
2013-02-18 01:05:00,24.2,11.6,30.25,SE,132,1.0,2.0,58,0.00,,---,0.00,0.00,VWS V14.00,2013-02-18 06:05:00,
2013-02-18 01:10:00,24.3,11.7,30.25,SE,133,4.0,6.0,58,0.00,,---,0.00,0.00,VWS V14.00,2013-02-18 06:10:00,
2013-02-18 01:15:00,24.4,12.1,30.25,SE,134,2.0,3.0,59,0.00,,---,0.00,0.00,VWS V14.00,2013-02-18 06:15:00,
2013-02-18 01:20:00,24.4,12.1,30.25,SE,142,5.0,6.0,59,0.00,,---,0.00,0.00,VWS V14.00,2013-02-18 06:20:00,
2013-02-18 01:25:00,24.4,11.8,30.25,SE,132,6.0,7.0,58,0.00,,---,0.00,0.00,VWS V14.00,2013-02-18 06:25:00,
2013-02-18 01:30:00,24.4,11.8,30.25,SE,127,2.0,4.0,58,0.00,,---,0.00,0.00,VWS V14.00,2013-02-18 06:30:00,
2013-02-18 01:35:00,24.3,12.1,30.25,SSE,147,4.0,4.0,59,0.00,,---,0.00,0.00,VWS V14.00,2013-02-18 06:35:00,
2013-02-18 01:40:00,24.3,12.4,30.25,SE,141,5.0,6.0,60,0.00,,---,0.00,0.00,VWS V14.00,2013-02-18 06:40:00,
2013-02-18 01:45:00,24.3,12.4,30.25,SE,144,4.0,4.0,60,0.00,,---,0.00,0.00,VWS V14.00,2013-02-18 06:45:00,
2013-02-18 01:50:00,24.4,12.5,30.25,SE,140,4.0,4.0,60,0.00,,---,0.00,0.00,VWS V14.00,2013-02-18 06:50:00,
2013-02-18 01:55:00,24.4,12.5,30.25,SE,139,2.0,5.0,60,0.00,,---,0.00,0.00,VWS V14.00,2013-02-18 06:55:00,
2013-02-18 02:00:00,24.4,12.5,30.25,SE,138,5.0,5.0,60,0.00,,---,0.00,0.00,VWS V14.00,2013-02-18 07:00:00,
2013-02-18 02:05:00,24.4,12.5,30.25,SE,130,1.0,3.0,60,0.00,,---,0.00,0.00,VWS V14.00,2013-02-18 07:05:00,
2013-02-18 02:10:00,24.3,12.4,30.25,SE,126,2.0,4.0,60,0.00,,---,0.00,0.00,VWS V14.00,2013-02-18 07:10:00,
2013-02-18 02:16:00,24.0,12.5,30.25,SE,128,4.0,4.0,61,0.00,,---,0.00,0.00,VWS V14.00,2013-02-18 07:16:00,
2013-02-18 02:21:00,23.9,12.4,30.25,ESE,119,3.0,5.0,61,0.00,,---,0.00,0.00,VWS V14.00,2013-02-18 07:21:00,
2013-02-18 02:26:00,23.7,12.6,30.25,SE,128,2.0,5.0,62,0.00,,---,0.00,0.00,VWS V14.00,2013-02-18 07:26:00,
2013-02-18 02:31:00,23.7,12.6,30.25,SE,125,4.0,4.0,62,0.00,,---,0.00,0.00,VWS V14.00,2013-02-18 07:31:00,
2013-02-18 02:36:00,23.6,12.5,30.25,SE,132,4.0,6.0,62,0.00,,---,0.00,0.00,VWS V14.00,2013-02-18 07:36:00,
2013-02-18 02:41:00,23.7,12.6,30.25,SE,137,4.0,4.0,62,0.00,,---,0.00,0.00,VWS V14.00,2013-02-18 07:41:00,
2013-02-18 02:46:00,23.7,12.6,30.24,SE,128,4.0,6.0,62,0.00,,---,0.00,0.00,VWS V14.00,2013-02-18 07:46:00,
2013-02-18 02:51:00,23.6,12.9,30.24,ESE,121,6.0,6.0,63,0.00,,---,0.00,0.00,VWS V14.00,2013-02-18 07:51:00,
2013-02-18 02:56:00,23.5,12.8,30.24,SE,132,4.0,5.0,63,0.00,,---,0.00,0.00,VWS V14.00,2013-02-18 07:56:00,
2013-02-18 03:01:00,23.5,12.8,30.24,SE,134,3.0,5.0,63,0.00,,---,0.00,0.00,VWS V14.00,2013-02-18 08:01:00,
2013-02-18 03:06:00,23.5,12.8,30.24,SE,125,5.0,6.0,63,0.00,,---,0.00,0.00,VWS V14.00,2013-02-18 08:06:00,
2013-02-18 03:11:00,23.5,12.8,30.24,SE,132,4.0,5.0,63,0.00,,---,0.00,0.00,VWS V14.00,2013-02-18 08:11:00,
2013-02-18 03:16:00,23.5,13.1,30.24,SE,132,2.0,5.0,64,0.00,,---,0.00,0.00,VWS V14.00,2013-02-18 08:16:00,
2013-02-18 03:21:00,23.4,13.0,30.23,ESE,121,6.0,6.0,64,0.00,,---,0.00,0.00,VWS V14.00,2013-02-18 08:21:00,
2013-02-18 03:26:00,23.3,12.9,30.23,ESE,123,6.0,6.0,64,0.00,,---,0.00,0.00,VWS V14.00,2013-02-18 08:26:00,
2013-02-18 03:31:00,23.4,13.0,30.23,SE,130,4.0,6.0,64,0.00,,---,0.00,0.00,VWS V14.00,2013-02-18 08:31:00,
2013-02-18 03:36:00,23.4,13.0,30.22,SE,126,4.0,6.0,64,0.00,,---,0.00,0.00,VWS V14.00,2013-02-18 08:36:00,
2013-02-18 03:41:00,23.4,13.4,30.22,SE,125,4.0,6.0,65,0.00,,---,0.00,0.00,VWS V14.00,2013-02-18 08:41:00,
2013-02-18 03:46:00,23.4,13.4,30.22,SE,135,6.0,7.0,65,0.00,,---,0.00,0.00,VWS V14.00,2013-02-18 08:46:00,
2013-02-18 03:51:00,23.3,13.6,30.21,SE,128,3.0,6.0,66,0.00,,---,0.00,0.00,VWS V14.00,2013-02-18 08:51:00,
2013-02-18 03:56:00,23.3,13.6,30.21,SE,128,5.0,5.0,66,0.00,,---,0.00,0.00,VWS V14.00,2013-02-18 08:56:00,
2013-02-18 04:01:00,23.3,13.6,30.21,SE,133,4.0,4.0,66,0.00,,---,0.00,0.00,VWS V14.00,2013-02-18 09:01:00,
2013-02-18 04:06:00,23.4,13.7,30.21,SE,132,6.0,6.0,66,0.00,,---,0.00,0.00,VWS V14.00,2013-02-18 09:06:00,
2013-02-18 04:11:00,23.5,13.8,30.20,SE,128,7.0,7.0,66,0.00,,---,0.00,0.00,VWS V14.00,2013-02-18 09:11:00,
2013-02-18 04:16:00,23.5,13.8,30.20,ESE,115,5.0,6.0,66,0.00,,---,0.00,0.00,VWS V14.00,2013-02-18 09:16:00,
2013-02-18 04:21:00,23.6,13.9,30.20,SE,134,5.0,7.0,66,0.00,,---,0.00,0.00,VWS V14.00,2013-02-18 09:21:00,
2013-02-18 04:26:00,23.6,14.3,30.20,SE,134,5.0,6.0,67,0.00,,---,0.00,0.00,VWS V14.00,2013-02-18 09:26:00,
2013-02-18 04:31:00,23.5,14.2,30.20,SE,129,4.0,5.0,67,0.00,,---,0.00,0.00,VWS V14.00,2013-02-18 09:31:00,
2013-02-18 04:36:00,23.5,14.5,30.20,ESE,119,5.0,6.0,68,0.00,,---,0.00,0.00,VWS V14.00,2013-02-18 09:36:00,
2013-02-18 04:41:00,23.4,14.4,30.20,ESE,118,7.0,7.0,68,0.00,,---,0.00,0.00,VWS V14.00,2013-02-18 09:41:00,
2013-02-18 04:46:00,23.4,14.4,30.20,SE,138,6.0,6.0,68,0.00,,---,0.00,0.00,VWS V14.00,2013-02-18 09:46:00,
2013-02-18 04:51:00,23.3,14.3,30.19,SE,132,5.0,7.0,68,0.00,,---,0.00,0.00,VWS V14.00,2013-02-18 09:51:00,
2013-02-18 04:56:00,23.3,14.6,30.20,SE,132,4.0,6.0,69,0.00,,---,0.00,0.00,VWS V14.00,2013-02-18 09:56:00,
2013-02-18 05:01:00,23.3,14.6,30.20,SE,128,5.0,5.0,69,0.00,,---,0.00,0.00,VWS V14.00,2013-02-18 10:01:00,
2013-02-18 05:06:00,23.3,15.0,30.19,SE,132,4.0,6.0,70,0.00,,---,0.00,0.00,VWS V14.00,2013-02-18 10:06:00,
2013-02-18 05:11:00,23.3,15.0,30.19,ESE,123,5.0,8.0,70,0.00,,---,0.00,0.00,VWS V14.00,2013-02-18 10:11:00,
2013-02-18 05:16:00,23.3,15.0,30.19,SE,131,5.0,7.0,70,0.00,,---,0.00,0.00,VWS V14.00,2013-02-18 10:16:00,
2013-02-18 05:21:00,23.3,15.0,30.19,SE,132,4.0,5.0,70,0.00,,---,0.00,0.00,VWS V14.00,2013-02-18 10:21:00,
2013-02-18 05:26:00,23.2,14.9,30.19,SE,131,5.0,5.0,70,0.00,,---,0.00,0.00,VWS V14.00,2013-02-18 10:26:00,
2013-02-18 05:31:00,23.1,15.1,30.20,SE,125,5.0,7.0,71,0.00,,---,0.00,0.00,VWS V14.00,2013-02-18 10:31:00,
2013-02-18 05:36:00,23.1,15.1,30.20,SE,139,5.0,5.0,71,0.00,,---,0.00,0.00,VWS V14.00,2013-02-18 10:36:00,
2013-02-18 05:41:00,23.1,15.1,30.19,SE,127,5.0,6.0,71,0.00,,---,0.00,0.00,VWS V14.00,2013-02-18 10:41:00,
2013-02-18 05:46:00,23.1,15.1,30.19,SE,126,3.0,4.0,71,0.00,,---,0.00,0.00,VWS V14.00,2013-02-18 10:46:00,
2013-02-18 05:51:00,23.1,15.1,30.19,SE,132,6.0,6.0,71,0.00,,---,0.00,0.00,VWS V14.00,2013-02-18 10:51:00,
2013-02-18 05:56:00,23.2,15.2,30.19,ESE,123,2.0,4.0,71,0.00,,---,0.00,0.00,VWS V14.00,2013-02-18 10:56:00,
2013-02-18 06:01:00,23.3,15.3,30.19,SE,126,4.0,6.0,71,0.00,,---,0.00,0.00,VWS V14.00,2013-02-18 11:01:00,
2013-02-18 06:06:00,23.2,15.2,30.19,ESE,121,6.0,6.0,71,0.00,,---,0.00,0.00,VWS V14.00,2013-02-18 11:06:00,
2013-02-18 06:11:00,23.2,15.2,30.19,SE,126,4.0,7.0,71,0.00,,---,0.00,0.00,VWS V14.00,2013-02-18 11:11:00,
2013-02-18 06:20:00,23.3,15.3,30.19,SE,126,2.0,7.0,71,0.00,,---,0.00,0.00,VWS V14.00,2013-02-18 11:20:00,
2013-02-18 06:25:00,23.3,15.3,30.18,ESE,122,2.0,7.0,71,0.00,,---,0.00,0.00,VWS V14.00,2013-02-18 11:25:00,
2013-02-18 06:30:00,23.3,15.3,30.18,SE,130,4.0,7.0,71,0.00,,---,0.00,0.00,VWS V14.00,2013-02-18 11:30:00,
2013-02-18 06:35:00,23.4,15.4,30.18,SE,138,5.0,7.0,71,0.00,,---,0.00,0.00,VWS V14.00,2013-02-18 11:35:00,
2013-02-18 06:40:00,23.5,15.5,30.18,SE,136,3.0,7.0,71,0.00,,---,0.00,0.00,VWS V14.00,2013-02-18 11:40:00,
2013-02-18 06:46:00,23.8,15.8,30.17,ESE,115,5.0,7.0,71,0.00,,---,0.00,0.00,VWS V14.00,2013-02-18 11:46:00,
2013-02-18 06:52:00,23.9,17.5,30.17,SE,138,4.0,6.0,76,0.00,,---,0.00,0.00,VWS V14.00,2013-02-18 11:52:00,
2013-02-18 06:57:00,24.0,15.6,30.17,SE,132,2.0,5.0,70,0.00,,---,0.00,0.00,VWS V14.00,2013-02-18 11:57:00,
2013-02-18 07:02:00,24.2,15.8,30.17,SE,133,5.0,6.0,70,0.00,,---,0.00,0.00,VWS V14.00,2013-02-18 12:02:00,
2013-02-18 07:07:00,24.4,15.7,30.17,SE,134,8.0,8.0,69,0.00,,---,0.00,0.00,VWS V14.00,2013-02-18 12:07:00,
2013-02-18 07:12:00,24.7,16.0,30.17,SE,128,7.0,8.0,69,0.00,,---,0.00,0.00,VWS V14.00,2013-02-18 12:12:00,
2013-02-18 07:17:00,24.9,16.2,30.17,SSE,153,6.0,6.0,69,0.00,,---,0.00,0.00,VWS V14.00,2013-02-18 12:17:00,
2013-02-18 07:22:00,25.2,16.1,30.17,SE,142,5.0,7.0,68,0.00,,---,0.00,0.00,VWS V14.00,2013-02-18 12:22:00,
2013-02-18 07:27:00,25.4,16.3,30.17,SSE,162,5.0,10.0,68,0.00,,---,0.00,5.00,VWS V14.00,2013-02-18 12:27:00,
2013-02-18 07:32:00,25.7,16.3,30.17,SE,139,5.0,8.0,67,0.00,,---,0.00,9.00,VWS V14.00,2013-02-18 12:32:00,
2013-02-18 07:37:00,26.0,16.6,30.16,SE,145,8.0,8.0,67,0.00,,---,0.00,14.00,VWS V14.00,2013-02-18 12:37:00,
2013-02-18 07:42:00,26.2,16.8,30.16,SE,129,6.0,7.0,67,0.00,,---,0.00,16.00,VWS V14.00,2013-02-18 12:42:00,
2013-02-18 07:47:00,26.5,16.7,30.16,SSE,166,4.0,7.0,66,0.00,,---,0.00,21.00,VWS V14.00,2013-02-18 12:47:00,
2013-02-18 07:52:00,26.8,17.0,30.16,SSE,148,7.0,9.0,66,0.00,,---,0.00,26.00,VWS V14.00,2013-02-18 12:52:00,
2013-02-18 07:57:00,26.9,17.1,30.16,SE,134,5.0,9.0,66,0.00,,---,0.00,30.00,VWS V14.00,2013-02-18 12:57:00,
2013-02-18 08:02:00,27.0,17.2,30.16,SSE,153,4.0,9.0,66,0.00,,---,0.00,35.00,VWS V14.00,2013-02-18 13:02:00,
2013-02-18 08:07:00,27.1,17.3,30.15,SE,145,5.0,10.0,66,0.00,,---,0.00,46.00,VWS V14.00,2013-02-18 13:07:00,
2013-02-18 08:12:00,27.4,17.5,30.16,SSE,153,6.0,8.0,66,0.00,,---,0.00,63.00,VWS V14.00,2013-02-18 13:12:00,
2013-02-18 08:20:00,27.8,17.9,30.15,SE,135,6.0,8.0,66,0.00,,---,0.00,74.00,VWS V14.00,2013-02-18 13:20:00,
2013-02-18 08:25:00,28.1,18.2,30.16,SSE,153,5.0,10.0,66,0.00,,---,0.00,90.00,VWS V14.00,2013-02-18 13:25:00,
2013-02-18 08:30:00,28.4,18.5,30.15,SSE,166,4.0,7.0,66,0.00,,---,0.00,93.00,VWS V14.00,2013-02-18 13:30:00,
2013-02-18 08:35:00,28.8,18.5,30.16,SSE,151,5.0,9.0,65,0.00,,---,0.00,137.00,VWS V14.00,2013-02-18 13:35:00,
2013-02-18 08:40:00,29.3,18.6,30.16,SSE,150,5.0,10.0,64,0.00,,---,0.00,148.00,VWS V14.00,2013-02-18 13:40:00,
2013-02-18 08:45:00,29.8,19.1,30.15,SSE,149,5.0,9.0,64,0.00,,---,0.00,105.00,VWS V14.00,2013-02-18 13:45:00,
2013-02-18 08:50:00,30.2,19.5,30.15,SSE,162,5.0,13.0,64,0.00,,---,0.00,102.00,VWS V14.00,2013-02-18 13:50:00,
2013-02-18 08:55:00,30.6,19.5,30.15,SSE,164,5.0,9.0,63,0.00,,---,0.00,155.00,VWS V14.00,2013-02-18 13:55:00,
2013-02-18 09:02:00,31.2,20.5,30.15,SE,143,4.0,8.0,64,0.00,,---,0.00,207.00,VWS V14.00,2013-02-18 14:02:00,
2013-02-18 09:07:00,31.7,20.6,30.15,South,191,4.0,9.0,63,0.00,,---,0.00,246.00,VWS V14.00,2013-02-18 14:07:00,
2013-02-18 09:12:00,32.3,20.8,30.14,SE,128,5.0,10.0,62,0.00,,---,0.00,202.00,VWS V14.00,2013-02-18 14:12:00,
2013-02-18 09:17:00,32.7,21.1,30.14,South,173,4.0,13.0,62,0.00,,---,0.00,128.00,VWS V14.00,2013-02-18 14:17:00,
2013-02-18 09:22:00,33.0,21.0,30.14,SSE,150,9.0,12.0,61,0.00,,---,0.00,174.00,VWS V14.00,2013-02-18 14:22:00,
2013-02-18 09:27:00,33.3,21.3,30.14,SSE,158,6.0,13.0,61,0.00,,---,0.00,213.00,VWS V14.00,2013-02-18 14:27:00,
2013-02-18 09:32:00,33.7,22.1,30.13,SSE,147,3.0,13.0,62,0.00,,---,0.00,125.00,VWS V14.00,2013-02-18 14:32:00,
2013-02-18 09:37:00,34.0,22.4,30.13,SE,142,7.0,9.0,62,0.00,,---,0.00,241.00,VWS V14.00,2013-02-18 14:37:00,
2013-02-18 09:42:00,34.4,22.0,30.13,SSW,192,4.0,11.0,60,0.00,,---,0.00,199.00,VWS V14.00,2013-02-18 14:42:00,
2013-02-18 09:47:00,34.9,22.4,30.13,SW,217,6.0,10.0,60,0.00,,---,0.00,227.00,VWS V14.00,2013-02-18 14:47:00,
2013-02-18 09:52:00,35.3,23.2,30.13,SSW,193,4.0,8.0,61,0.00,,---,0.00,341.00,VWS V14.00,2013-02-18 14:52:00,
2013-02-18 09:57:00,35.9,23.4,30.13,SSE,154,5.0,11.0,60,0.00,,---,0.00,348.00,VWS V14.00,2013-02-18 14:57:00,
2013-02-18 10:02:00,36.7,24.1,30.12,SSW,198,6.0,7.0,60,0.00,,---,0.00,355.00,VWS V14.00,2013-02-18 15:02:00,
2013-02-18 10:07:00,37.5,24.9,30.12,South,173,6.0,8.0,60,0.00,,---,0.00,438.00,VWS V14.00,2013-02-18 15:07:00,
2013-02-18 10:12:00,38.0,24.5,30.12,SSW,207,7.0,14.0,58,0.00,,---,0.00,378.00,VWS V14.00,2013-02-18 15:12:00,
2013-02-18 10:17:00,38.6,25.1,30.12,SSE,159,6.0,9.0,58,0.00,,---,0.00,420.00,VWS V14.00,2013-02-18 15:17:00,
2013-02-18 10:22:00,39.3,25.8,30.11,SSW,208,5.0,8.0,58,0.00,,---,0.00,406.00,VWS V14.00,2013-02-18 15:22:00,
2013-02-18 10:27:00,40.0,26.0,30.11,South,173,1.0,11.0,57,0.00,,---,0.00,396.00,VWS V14.00,2013-02-18 15:27:00,
2013-02-18 10:32:00,40.8,27.2,30.11,SSW,194,7.0,9.0,58,0.00,,---,0.00,392.00,VWS V14.00,2013-02-18 15:32:00,
2013-02-18 10:37:00,41.6,27.5,30.11,SSW,201,4.0,9.0,57,0.00,,---,0.00,345.00,VWS V14.00,2013-02-18 15:37:00,
2013-02-18 10:42:00,42.5,27.9,30.11,South,176,4.0,7.0,56,0.00,,---,0.00,399.00,VWS V14.00,2013-02-18 15:42:00,
2013-02-18 10:47:00,43.2,28.6,30.11,SSW,211,6.0,12.0,56,0.00,,---,0.00,422.00,VWS V14.00,2013-02-18 15:47:00,
2013-02-18 10:52:00,44.0,29.3,30.11,SSE,167,6.0,11.0,56,0.00,,---,0.00,450.00,VWS V14.00,2013-02-18 15:52:00,
2013-02-18 10:57:00,44.8,30.1,30.10,SW,232,7.0,10.0,56,0.00,,---,0.00,353.00,VWS V14.00,2013-02-18 15:57:00,
2013-02-18 11:02:00,45.8,31.9,30.10,WSW,241,5.0,15.0,58,0.00,,---,0.00,174.00,VWS V14.00,2013-02-18 16:02:00,
2013-02-18 11:07:00,46.5,32.1,30.10,SW,216,11.0,13.0,57,0.00,,---,0.00,109.00,VWS V14.00,2013-02-18 16:07:00,
2013-02-18 11:12:00,47.2,32.8,30.10,SW,229,19.0,20.0,57,0.00,,---,0.00,88.00,VWS V14.00,2013-02-18 16:12:00,
2013-02-18 11:17:00,47.6,33.1,30.10,WSW,250,3.0,12.0,57,0.00,,---,0.00,79.00,VWS V14.00,2013-02-18 16:17:00,
2013-02-18 11:22:00,48.3,33.8,30.10,NW,309,5.0,10.0,57,0.00,,---,0.00,91.00,VWS V14.00,2013-02-18 16:22:00,
2013-02-18 11:27:00,48.6,33.6,30.09,SSW,209,7.0,19.0,56,0.00,,---,0.00,95.00,VWS V14.00,2013-02-18 16:27:00,
2013-02-18 11:32:00,49.0,34.5,30.09,WSW,252,7.0,14.0,57,0.00,,---,0.00,95.00,VWS V14.00,2013-02-18 16:32:00,
2013-02-18 11:37:00,49.2,34.6,30.09,WSW,254,9.0,14.0,57,0.00,,---,0.00,97.00,VWS V14.00,2013-02-18 16:37:00,
2013-02-18 11:42:00,49.3,34.7,30.09,West,274,7.0,14.0,57,0.00,,---,0.00,121.00,VWS V14.00,2013-02-18 16:42:00,
2013-02-18 11:47:00,49.6,35.0,30.08,SSW,200,9.0,16.0,57,0.00,,---,0.00,153.00,VWS V14.00,2013-02-18 16:47:00,
2013-02-18 11:53:00,49.8,34.8,30.09,SW,220,9.0,15.0,56,0.00,,---,0.00,169.00,VWS V14.00,2013-02-18 16:53:00,
2013-02-18 11:58:00,50.0,35.4,30.08,WSW,254,10.0,16.0,57,0.00,,---,0.00,200.00,VWS V14.00,2013-02-18 16:58:00,
2013-02-18 12:03:00,50.2,35.1,30.08,WSW,253,8.0,22.0,56,0.00,,---,0.00,541.00,VWS V14.00,2013-02-18 17:03:00,
2013-02-18 12:08:00,50.4,35.3,30.08,WSW,254,9.0,11.0,56,0.00,,---,0.00,526.00,VWS V14.00,2013-02-18 17:08:00,
2013-02-18 12:13:00,50.7,35.6,30.08,SW,230,14.0,14.0,56,0.00,,---,0.00,520.00,VWS V14.00,2013-02-18 17:13:00,
2013-02-18 12:18:00,51.1,36.0,30.07,SW,227,9.0,12.0,56,0.00,,---,0.00,512.00,VWS V14.00,2013-02-18 17:18:00,
2013-02-18 12:23:00,51.7,36.1,30.07,SW,232,10.0,12.0,55,0.00,,---,0.00,554.00,VWS V14.00,2013-02-18 17:23:00,
2013-02-18 12:28:00,52.1,36.4,30.06,SW,224,11.0,11.0,55,0.00,,---,0.00,584.00,VWS V14.00,2013-02-18 17:28:00,
2013-02-18 12:33:00,52.4,36.3,30.06,SW,219,10.0,22.0,54,0.00,,---,0.00,573.00,VWS V14.00,2013-02-18 17:33:00,
2013-02-18 12:38:00,52.6,35.5,30.06,SW,234,4.0,16.0,52,0.00,,---,0.00,492.00,VWS V14.00,2013-02-18 17:38:00,
2013-02-18 12:43:00,52.6,35.5,30.06,SSW,195,8.0,29.0,52,0.00,,---,0.00,455.00,VWS V14.00,2013-02-18 17:43:00,
2013-02-18 12:48:00,52.4,35.3,30.05,SW,232,9.0,18.0,52,0.00,,---,0.00,689.00,VWS V14.00,2013-02-18 17:48:00,
2013-02-18 12:53:00,52.8,35.7,30.05,SSW,208,5.0,14.0,52,0.00,,---,0.00,740.00,VWS V14.00,2013-02-18 17:53:00,
2013-02-18 12:58:00,53.5,35.8,30.04,SSE,165,11.0,16.0,51,0.00,,---,0.00,703.00,VWS V14.00,2013-02-18 17:58:00,
2013-02-18 13:03:00,53.8,36.1,30.04,SW,220,8.0,13.0,51,0.00,,---,0.00,722.00,VWS V14.00,2013-02-18 18:03:00,
2013-02-18 13:08:00,54.3,36.6,30.04,SE,136,5.0,13.0,51,0.00,,---,0.00,719.00,VWS V14.00,2013-02-18 18:08:00,
2013-02-18 13:13:00,55.0,36.7,30.03,WSW,238,11.0,20.0,50,0.00,,---,0.00,680.00,VWS V14.00,2013-02-18 18:13:00,
2013-02-18 13:18:00,55.5,36.7,30.03,SW,218,6.0,12.0,49,0.00,,---,0.00,589.00,VWS V14.00,2013-02-18 18:18:00,
2013-02-18 13:23:00,55.8,36.4,30.02,SW,222,15.0,18.0,48,0.00,,---,0.00,547.00,VWS V14.00,2013-02-18 18:23:00,
2013-02-18 13:28:00,55.9,36.0,30.02,SSW,213,13.0,23.0,47,0.00,,---,0.00,589.00,VWS V14.00,2013-02-18 18:28:00,
2013-02-18 13:33:00,56.0,36.1,30.02,SW,223,12.0,26.0,47,0.00,,---,0.00,582.00,VWS V14.00,2013-02-18 18:33:00,
2013-02-18 13:38:00,56.0,36.1,30.02,WSW,257,6.0,14.0,47,0.00,,---,0.00,397.00,VWS V14.00,2013-02-18 18:38:00,
2013-02-18 13:43:00,56.0,35.5,30.02,SW,235,10.0,16.0,46,0.00,,---,0.00,469.00,VWS V14.00,2013-02-18 18:43:00,
2013-02-18 13:48:00,56.2,36.3,30.01,WNW,298,6.0,15.0,47,0.00,,---,0.00,735.00,VWS V14.00,2013-02-18 18:48:00,
2013-02-18 13:53:00,56.6,36.1,30.01,SSE,152,15.0,23.0,46,0.00,,---,0.00,831.00,VWS V14.00,2013-02-18 18:53:00,
2013-02-18 13:58:00,56.8,36.3,30.01,South,179,15.0,21.0,46,0.00,,---,0.00,552.00,VWS V14.00,2013-02-18 18:58:00,
2013-02-18 14:03:00,56.9,36.3,30.00,SW,233,6.0,21.0,46,0.00,,---,0.00,705.00,VWS V14.00,2013-02-18 19:03:00,
2013-02-18 14:08:00,57.2,36.6,30.00,South,186,10.0,15.0,46,0.00,,---,0.00,671.00,VWS V14.00,2013-02-18 19:08:00,
2013-02-18 14:13:00,57.4,36.8,30.00,SW,235,13.0,22.0,46,0.00,,---,0.00,673.00,VWS V14.00,2013-02-18 19:13:00,
2013-02-18 14:18:00,56.9,36.3,30.00,SW,236,9.0,19.0,46,0.00,,---,0.00,297.00,VWS V14.00,2013-02-18 19:18:00,
2013-02-18 14:23:00,56.6,36.1,30.00,SW,235,5.0,18.0,46,0.00,,---,0.00,439.00,VWS V14.00,2013-02-18 19:23:00,
2013-02-18 14:28:00,56.7,36.7,30.00,WSW,252,10.0,19.0,47,0.00,,---,0.00,584.00,VWS V14.00,2013-02-18 19:28:00,
2013-02-18 14:33:00,57.2,37.7,30.00,SW,223,13.0,13.0,48,0.00,,---,0.00,464.00,VWS V14.00,2013-02-18 19:33:00,
2013-02-18 14:38:00,57.3,36.7,29.99,SW,215,9.0,25.0,46,0.00,,---,0.00,360.00,VWS V14.00,2013-02-18 19:38:00,
2013-02-18 14:43:00,57.3,36.7,29.99,SW,214,5.0,15.0,46,0.00,,---,0.00,603.00,VWS V14.00,2013-02-18 19:43:00,
2013-02-18 14:48:00,57.7,37.1,29.99,SSW,194,10.0,13.0,46,0.00,,---,0.00,698.00,VWS V14.00,2013-02-18 19:48:00,
2013-02-18 14:53:00,58.2,37.5,29.99,WSW,238,14.0,15.0,46,0.00,,---,0.00,373.00,VWS V14.00,2013-02-18 19:53:00,
2013-02-18 15:00:00,58.0,37.4,29.98,South,171,18.0,20.0,46,0.00,,---,0.00,341.00,VWS V14.00,2013-02-18 20:00:00,
2013-02-18 15:09:00,58.1,37.5,29.97,WSW,238,10.0,18.0,46,0.00,,---,0.00,329.00,VWS V14.00,2013-02-18 20:09:00,
2013-02-18 15:14:00,58.1,37.5,29.97,WSW,240,11.0,13.0,46,0.00,,---,0.00,329.00,VWS V14.00,2013-02-18 20:14:00,
2013-02-18 15:19:00,58.1,37.5,29.97,SW,232,12.0,16.0,46,0.00,,---,0.00,297.00,VWS V14.00,2013-02-18 20:19:00,
2013-02-18 15:24:00,58.2,38.1,29.96,SE,125,7.0,16.0,47,0.00,,---,0.00,274.00,VWS V14.00,2013-02-18 20:24:00,
2013-02-18 15:29:00,58.1,38.0,29.96,South,180,6.0,19.0,47,0.00,,---,0.00,285.00,VWS V14.00,2013-02-18 20:29:00,
2013-02-18 15:34:00,58.2,38.6,29.96,SSW,197,11.0,11.0,48,0.00,,---,0.00,513.00,VWS V14.00,2013-02-18 20:34:00,
2013-02-18 15:39:00,58.5,38.4,29.96,SW,229,7.0,19.0,47,0.00,,---,0.00,459.00,VWS V14.00,2013-02-18 20:39:00,
2013-02-18 15:44:00,58.5,38.4,29.95,SSW,206,12.0,21.0,47,0.00,,---,0.00,338.00,VWS V14.00,2013-02-18 20:44:00,
2013-02-18 15:49:00,58.5,38.4,29.95,SW,228,16.0,16.0,47,0.00,,---,0.00,149.00,VWS V14.00,2013-02-18 20:49:00,
2013-02-18 15:54:00,58.3,38.2,29.95,South,179,11.0,16.0,47,0.00,,---,0.00,457.00,VWS V14.00,2013-02-18 20:54:00,
2013-02-18 15:59:00,58.5,38.9,29.94,SSW,213,14.0,19.0,48,0.00,,---,0.00,188.00,VWS V14.00,2013-02-18 20:59:00,
2013-02-18 16:04:00,58.5,38.4,29.93,SSW,203,6.0,13.0,47,0.00,,---,0.00,276.00,VWS V14.00,2013-02-18 21:04:00,
2013-02-18 16:09:00,58.7,39.1,29.93,South,191,5.0,16.0,48,0.00,,---,0.00,355.00,VWS V14.00,2013-02-18 21:09:00,
2013-02-18 16:14:00,59.1,38.4,29.92,South,188,16.0,16.0,46,0.00,,---,0.00,371.00,VWS V14.00,2013-02-18 21:14:00,
2013-02-18 16:19:00,59.3,39.1,29.92,SW,215,7.0,19.0,47,0.00,,---,0.00,332.00,VWS V14.00,2013-02-18 21:19:00,
2013-02-18 16:24:00,59.3,39.1,29.92,SSW,195,9.0,20.0,47,0.00,,---,0.00,420.00,VWS V14.00,2013-02-18 21:24:00,
2013-02-18 16:29:00,59.5,39.3,29.91,SSW,200,10.0,13.0,47,0.00,,---,0.00,181.00,VWS V14.00,2013-02-18 21:29:00,
2013-02-18 16:34:00,59.6,39.4,29.92,SW,220,15.0,16.0,47,0.00,,---,0.00,380.00,VWS V14.00,2013-02-18 21:34:00,
2013-02-18 16:39:00,59.7,38.9,29.92,SW,219,19.0,23.0,46,0.00,,---,0.00,373.00,VWS V14.00,2013-02-18 21:39:00,
2013-02-18 16:44:00,59.7,38.9,29.91,SSW,192,5.0,19.0,46,0.00,,---,0.00,336.00,VWS V14.00,2013-02-18 21:44:00,
2013-02-18 16:49:00,59.6,38.8,29.91,South,190,10.0,16.0,46,0.00,,---,0.00,265.00,VWS V14.00,2013-02-18 21:49:00,
2013-02-18 16:54:00,59.4,38.6,29.91,SW,217,6.0,15.0,46,0.00,,---,0.00,272.00,VWS V14.00,2013-02-18 21:54:00,
2013-02-18 16:59:00,59.1,38.9,29.90,South,185,10.0,21.0,47,0.00,,---,0.00,267.00,VWS V14.00,2013-02-18 21:59:00,
2013-02-18 17:04:00,58.9,39.3,29.90,SW,231,9.0,15.0,48,0.00,,---,0.00,234.00,VWS V14.00,2013-02-18 22:04:00,
2013-02-18 17:09:00,58.8,38.6,29.90,SW,223,13.0,22.0,47,0.00,,---,0.00,211.00,VWS V14.00,2013-02-18 22:09:00,
2013-02-18 17:14:00,58.7,39.1,29.90,SSW,205,4.0,15.0,48,0.00,,---,0.00,190.00,VWS V14.00,2013-02-18 22:14:00,
2013-02-18 17:19:00,58.6,39.0,29.89,South,184,9.0,18.0,48,0.00,,---,0.00,169.00,VWS V14.00,2013-02-18 22:19:00,
2013-02-18 17:24:00,58.3,38.7,29.89,SSW,211,13.0,20.0,48,0.00,,---,0.00,53.00,VWS V14.00,2013-02-18 22:24:00,
2013-02-18 17:29:00,58.0,39.0,29.89,SSE,156,6.0,14.0,49,0.00,,---,0.00,42.00,VWS V14.00,2013-02-18 22:29:00,
2013-02-18 17:34:00,57.8,38.8,29.89,SSW,205,12.0,19.0,49,0.00,,---,0.00,35.00,VWS V14.00,2013-02-18 22:34:00,
2013-02-18 17:39:00,57.5,38.5,29.89,South,173,6.0,16.0,49,0.00,,---,0.00,26.00,VWS V14.00,2013-02-18 22:39:00,
2013-02-18 17:44:00,57.3,38.3,29.89,South,186,9.0,15.0,49,0.00,,---,0.00,14.00,VWS V14.00,2013-02-18 22:44:00,
2013-02-18 17:49:00,57.1,38.1,29.89,SW,223,10.0,14.0,49,0.00,,---,0.00,11.00,VWS V14.00,2013-02-18 22:49:00,
2013-02-18 17:54:00,56.9,38.0,29.88,SSW,213,7.0,18.0,49,0.00,,---,0.00,9.00,VWS V14.00,2013-02-18 22:54:00,
2013-02-18 17:59:00,57.0,38.0,29.88,SSE,154,7.0,21.0,49,0.00,,---,0.00,12.00,VWS V14.00,2013-02-18 22:59:00,
2013-02-18 18:04:00,56.9,38.0,29.88,SSW,201,5.0,14.0,49,0.00,,---,0.00,12.00,VWS V14.00,2013-02-18 23:04:00,
2013-02-18 18:09:00,56.8,37.9,29.88,South,176,8.0,12.0,49,0.00,,---,0.00,11.00,VWS V14.00,2013-02-18 23:09:00,
2013-02-18 18:14:00,56.6,38.2,29.87,SSW,204,9.0,12.0,50,0.00,,---,0.00,7.00,VWS V14.00,2013-02-18 23:14:00,
2013-02-18 18:20:00,56.5,38.1,29.88,SSW,212,9.0,13.0,50,0.00,,---,0.00,0.00,VWS V14.00,2013-02-18 23:20:00,
2013-02-18 18:25:00,56.3,37.9,29.88,South,188,5.0,11.0,50,0.00,,---,0.00,0.00,VWS V14.00,2013-02-18 23:25:00,
2013-02-18 18:30:00,56.2,37.8,29.88,SSE,163,6.0,14.0,50,0.00,,---,0.00,0.00,VWS V14.00,2013-02-18 23:30:00,
2013-02-18 18:35:00,56.0,38.2,29.88,SSE,154,6.0,18.0,51,0.00,,---,0.00,0.00,VWS V14.00,2013-02-18 23:35:00,
2013-02-18 18:40:00,55.9,38.0,29.88,South,190,5.0,15.0,51,0.00,,---,0.00,0.00,VWS V14.00,2013-02-18 23:40:00,
2013-02-18 18:45:00,55.8,38.0,29.88,South,178,8.0,15.0,51,0.00,,---,0.00,0.00,VWS V14.00,2013-02-18 23:45:00,
2013-02-18 18:50:00,55.7,37.9,29.87,SSE,157,7.0,11.0,51,0.00,,---,0.00,0.00,VWS V14.00,2013-02-18 23:50:00,
2013-02-18 18:55:00,55.6,37.8,29.88,South,179,7.0,16.0,51,0.00,,---,0.00,0.00,VWS V14.00,2013-02-18 23:55:00,
2013-02-18 19:00:00,55.5,37.7,29.88,South,182,8.0,18.0,51,0.00,,---,0.00,0.00,VWS V14.00,2013-02-19 00:00:00,
2013-02-18 19:05:00,55.5,37.7,29.87,SSW,196,5.0,15.0,51,0.00,,---,0.00,0.00,VWS V14.00,2013-02-19 00:05:00,
2013-02-18 19:10:00,55.3,37.5,29.87,SSW,211,6.0,12.0,51,0.00,,---,0.00,0.00,VWS V14.00,2013-02-19 00:10:00,
2013-02-18 19:15:00,55.1,37.3,29.87,SSE,153,4.0,10.0,51,0.00,,---,0.00,0.00,VWS V14.00,2013-02-19 00:15:00,
2013-02-18 19:20:00,55.0,37.7,29.87,South,178,4.0,12.0,52,0.00,,---,0.00,0.00,VWS V14.00,2013-02-19 00:20:00,
2013-02-18 19:25:00,54.7,37.4,29.87,SSE,162,6.0,10.0,52,0.00,,---,0.00,0.00,VWS V14.00,2013-02-19 00:25:00,
2013-02-18 19:30:00,54.6,37.3,29.87,SSW,207,4.0,12.0,52,0.00,,---,0.00,0.00,VWS V14.00,2013-02-19 00:30:00,
2013-02-18 19:35:00,54.5,37.2,29.86,South,190,6.0,14.0,52,0.00,,---,0.00,0.00,VWS V14.00,2013-02-19 00:35:00,
2013-02-18 19:40:00,54.2,37.5,29.86,SE,146,2.0,8.0,53,0.00,,---,0.00,0.00,VWS V14.00,2013-02-19 00:40:00,
2013-02-18 19:45:00,54.0,37.3,29.86,South,170,5.0,12.0,53,0.00,,---,0.00,0.00,VWS V14.00,2013-02-19 00:45:00,
2013-02-18 19:50:00,53.9,37.2,29.86,South,170,6.0,7.0,53,0.00,,---,0.00,0.00,VWS V14.00,2013-02-19 00:50:00,
2013-02-18 19:55:00,53.9,36.7,29.86,South,175,4.0,19.0,52,0.00,,---,0.00,0.00,VWS V14.00,2013-02-19 00:55:00,
2013-02-18 20:00:00,53.8,36.6,29.86,SSE,154,7.0,15.0,52,0.00,,---,0.00,0.00,VWS V14.00,2013-02-19 01:00:00,
2013-02-18 20:05:00,53.7,36.5,29.85,SSE,163,5.0,15.0,52,0.00,,---,0.00,0.00,VWS V14.00,2013-02-19 01:05:00,
2013-02-18 20:10:00,53.6,35.9,29.85,SSE,155,4.0,4.0,51,0.00,,---,0.00,0.00,VWS V14.00,2013-02-19 01:10:00,
2013-02-18 20:15:00,53.6,35.9,29.85,SSE,167,6.0,7.0,51,0.00,,---,0.00,0.00,VWS V14.00,2013-02-19 01:15:00,
2013-02-18 20:20:00,53.5,35.8,29.85,SSE,164,6.0,6.0,51,0.00,,---,0.00,0.00,VWS V14.00,2013-02-19 01:20:00,
2013-02-18 20:25:00,53.5,36.3,29.84,South,171,12.0,12.0,52,0.00,,---,0.00,0.00,VWS V14.00,2013-02-19 01:25:00,
2013-02-18 20:30:00,53.4,35.7,29.84,SE,146,6.0,7.0,51,0.00,,---,0.00,0.00,VWS V14.00,2013-02-19 01:30:00,
2013-02-18 20:35:00,53.4,35.7,29.84,South,189,8.0,9.0,51,0.00,,---,0.00,0.00,VWS V14.00,2013-02-19 01:35:00,
2013-02-18 20:40:00,53.4,35.7,29.84,South,175,10.0,10.0,51,0.00,,---,0.00,0.00,VWS V14.00,2013-02-19 01:40:00,
2013-02-18 20:45:00,53.4,35.7,29.83,SSW,192,8.0,11.0,51,0.00,,---,0.00,0.00,VWS V14.00,2013-02-19 01:45:00,
2013-02-18 20:50:00,53.5,34.8,29.83,SSW,197,8.0,9.0,49,0.00,,---,0.00,0.00,VWS V14.00,2013-02-19 01:50:00,
2013-02-18 20:55:00,53.5,34.8,29.83,South,181,9.0,14.0,49,0.00,,---,0.00,0.00,VWS V14.00,2013-02-19 01:55:00,
2013-02-18 21:00:00,53.6,34.9,29.82,SW,227,15.0,18.0,49,0.00,,---,0.00,0.00,VWS V14.00,2013-02-19 02:00:00,
2013-02-18 21:06:00,53.8,34.6,29.82,South,181,13.0,15.0,48,0.00,,---,0.00,0.00,VWS V14.00,2013-02-19 02:06:00,
2013-02-18 21:11:00,53.9,34.7,29.81,SSW,200,7.0,11.0,48,0.00,,---,0.00,0.00,VWS V14.00,2013-02-19 02:11:00,
2013-02-18 21:16:00,53.9,34.7,29.82,SSW,207,9.0,9.0,48,0.00,,---,0.00,0.00,VWS V14.00,2013-02-19 02:16:00,
2013-02-18 21:21:00,53.9,34.7,29.82,SE,138,5.0,9.0,48,0.00,,---,0.00,0.00,VWS V14.00,2013-02-19 02:21:00,
2013-02-18 21:26:00,53.7,34.5,29.82,SSW,196,8.0,9.0,48,0.00,,---,0.00,0.00,VWS V14.00,2013-02-19 02:26:00,
2013-02-18 21:31:00,53.7,34.0,29.81,SSW,192,18.0,25.0,47,0.00,,---,0.00,0.00,VWS V14.00,2013-02-19 02:31:00,
2013-02-18 21:36:00,53.8,34.1,29.81,South,189,19.0,19.0,47,0.00,,---,0.00,0.00,VWS V14.00,2013-02-19 02:36:00,
2013-02-18 21:41:00,53.9,35.2,29.81,SW,219,20.0,22.0,49,0.00,,---,0.00,0.00,VWS V14.00,2013-02-19 02:41:00,
2013-02-18 21:46:00,53.8,35.1,29.81,WSW,247,9.0,21.0,49,0.00,,---,0.00,0.00,VWS V14.00,2013-02-19 02:46:00,
2013-02-18 21:51:00,53.6,35.4,29.81,SW,232,9.0,18.0,50,0.00,,---,0.00,0.00,VWS V14.00,2013-02-19 02:51:00,
2013-02-18 21:56:00,53.5,35.3,29.80,SSW,213,8.0,18.0,50,0.00,,---,0.00,0.00,VWS V14.00,2013-02-19 02:56:00,
2013-02-18 22:06:00,53.3,36.1,29.80,SSW,198,13.0,14.0,52,0.00,,---,0.00,0.00,VWS V14.00,2013-02-19 03:06:00,
2013-02-18 22:11:00,52.8,38.5,29.81,SW,224,22.0,24.0,58,0.00,,---,0.00,0.00,VWS V14.00,2013-02-19 03:11:00,
2013-02-18 22:16:00,52.0,38.6,29.81,SW,220,15.0,18.0,60,0.00,,---,0.00,0.00,VWS V14.00,2013-02-19 03:16:00,
2013-02-18 22:21:00,51.3,38.7,29.81,SSW,202,13.0,14.0,62,0.00,,---,0.00,0.00,VWS V14.00,2013-02-19 03:21:00,
2013-02-18 22:26:00,50.9,38.8,29.80,SSW,204,19.0,19.0,63,0.00,,---,0.00,0.00,VWS V14.00,2013-02-19 03:26:00,
2013-02-18 22:31:00,50.6,38.5,29.80,SW,228,13.0,18.0,63,0.00,,---,0.00,0.00,VWS V14.00,2013-02-19 03:31:00,
2013-02-18 22:36:00,50.5,38.4,29.80,South,171,4.0,11.0,63,0.00,,---,0.00,0.00,VWS V14.00,2013-02-19 03:36:00,
2013-02-18 22:41:00,50.4,39.9,29.82,SSE,167,25.0,31.0,67,0.00,,---,0.00,0.00,VWS V14.00,2013-02-19 03:41:00,
2013-02-18 22:46:00,49.0,40.7,29.81,SSW,192,12.0,25.0,73,0.00,,---,0.00,0.00,VWS V14.00,2013-02-19 03:46:00,
2013-02-18 22:51:00,47.9,40.7,29.81,SW,219,10.0,19.0,76,0.01,,---,0.01,0.00,VWS V14.00,2013-02-19 03:51:00,
2013-02-18 22:56:00,47.4,40.9,29.81,SW,225,15.0,25.0,78,0.01,,---,0.01,0.00,VWS V14.00,2013-02-19 03:56:00,
2013-02-18 23:01:00,47.2,41.0,29.80,SSE,161,11.0,12.0,79,0.01,,---,0.01,0.00,VWS V14.00,2013-02-19 04:01:00,
2013-02-18 23:06:00,47.0,40.8,29.79,SW,229,11.0,13.0,79,0.01,,---,0.01,0.00,VWS V14.00,2013-02-19 04:06:00,
2013-02-18 23:11:00,47.0,41.2,29.79,South,179,13.0,23.0,80,0.01,,---,0.01,0.00,VWS V14.00,2013-02-19 04:11:00,
2013-02-18 23:16:00,47.1,41.3,29.78,SSW,205,13.0,24.0,80,0.01,,---,0.01,0.00,VWS V14.00,2013-02-19 04:16:00,
2013-02-18 23:22:00,47.2,41.0,29.78,South,181,11.0,23.0,79,0.01,,---,0.01,0.00,VWS V14.00,2013-02-19 04:22:00,
2013-02-18 23:27:00,47.1,40.9,29.78,South,174,11.0,15.0,79,0.01,,---,0.01,0.00,VWS V14.00,2013-02-19 04:27:00,
2013-02-18 23:32:00,47.0,41.2,29.78,SSE,167,12.0,14.0,80,0.01,,---,0.01,0.00,VWS V14.00,2013-02-19 04:32:00,
2013-02-18 23:37:00,47.0,40.8,29.78,SSW,196,18.0,21.0,79,0.01,,---,0.01,0.00,VWS V14.00,2013-02-19 04:37:00,
2013-02-18 23:42:00,47.0,41.2,29.78,SSW,204,6.0,13.0,80,0.01,,---,0.01,0.00,VWS V14.00,2013-02-19 04:42:00,
2013-02-18 23:47:00,46.8,41.0,29.78,WSW,244,13.0,16.0,80,0.01,,---,0.01,0.00,VWS V14.00,2013-02-19 04:47:00,
2013-02-18 23:52:00,46.8,41.0,29.79,SW,221,11.0,23.0,80,0.00,,---,0.01,0.00,VWS V14.00,2013-02-19 04:52:00,
2013-02-18 23:57:00,46.7,41.2,29.79,SSW,211,10.0,22.0,81,0.00,,---,0.00,0.00,VWS V14.00,2013-02-19 04:57:00,